| time (UTC) | temp F | wind direction | speed knots | gust knots | rain 1hr in | rain 24hr in | rain mn in | humidity % | barometer mb |
| 20260906163516 | 68 | 203 | 1.7 | 4.3 | 0.00 | 0.00 | 0.00 | 40 | 1029.2 |
| 20260906162516 | 67 | 225 | 1.7 | 3.5 | 0.00 | 0.00 | 0.00 | 43 | 1028.6 |
| 20260906161516 | 67 | 203 | 2.6 | 7.0 | 0.00 | 0.00 | 0.00 | 44 | 1028.6 |
| 20260906160557 | 67 | 203 | 2.6 | 5.2 | 0.00 | 0.00 | 0.00 | 45 | 1028.7 |
| 20260906155537 | 66 | 158 | 2.6 | 7.0 | 0.00 | 0.00 | 0.00 | 46 | 1028.4 |
| 20260906154517 | 65 | 180 | 1.7 | 4.3 | 0.00 | 0.00 | 0.00 | 48 | 1028.2 |
| 20260906153516 | 66 | 203 | 1.7 | 5.2 | 0.00 | 0.00 | 0.00 | 46 | 1029.2 |
| 20260906152516 | 65 | 0.0 | 1.7 | 0.00 | 0.00 | 0.00 | 46 | 1028.7 | |
| 20260906151516 | 65 | 180 | 0.9 | 1.7 | 0.00 | 0.00 | 0.00 | 45 | 1028.7 |
| 20260906150516 | 64 | 180 | 0.9 | 1.7 | 0.00 | 0.00 | 0.00 | 46 | 1028.2 |
| 20260906145536 | 64 | 203 | 0.9 | 2.6 | 0.00 | 0.00 | 0.00 | 46 | 1028.1 |
| 20260906144517 | 63 | 135 | 0.9 | 1.7 | 0.00 | 0.00 | 0.00 | 49 | 1027.5 |
| 20260906143516 | 62 | 0.0 | 1.7 | 0.00 | 0.00 | 0.00 | 47 | 1027.4 | |
| 20260906142516 | 62 | 0.0 | 1.7 | 0.00 | 0.00 | 0.00 | 50 | 1027.3 | |
| 20260906141516 | 61 | 0.0 | 0.0 | 0.00 | 0.00 | 0.00 | 48 | 1027.2 | |
| 20260906140516 | 61 | 0.0 | 0.0 | 0.00 | 0.00 | 0.00 | 50 | 1027.3 | |
| 20260906135516 | 61 | 0.0 | 0.0 | 0.00 | 0.00 | 0.00 | 49 | 1027.1 | |
| 20260906134516 | 60 | 0.0 | 0.0 | 0.00 | 0.00 | 0.00 | 50 | 1027.1 | |
| 20260906133516 | 60 | 0.0 | 0.0 | 0.00 | 0.00 | 0.00 | 50 | 1027.7 | |
| 20260906132516 | 60 | 0.0 | 0.0 | 0.00 | 0.00 | 0.00 | 50 | 1027.6 | |
| 20260906131516 | 60 | 0.0 | 0.0 | 0.00 | 0.00 | 0.00 | 49 | 1027.4 | |
| 20260906130516 | 60 | 0.0 | 0.0 | 0.00 | 0.00 | 0.00 | 50 | 1028.0 | |
| 20260906125516 | 60 | 0.0 | 0.9 | 0.00 | 0.00 | 0.00 | 50 | 1028.0 | |
| 20260906124516 | 60 | 158 | 0.9 | 1.7 | 0.00 | 0.00 | 0.00 | 50 | 1027.2 |
| 20260906123516 | 60 | 158 | 1.7 | 2.6 | 0.00 | 0.00 | 0.00 | 50 | 1028.8 |
| 20260906122536 | 60 | 180 | 1.7 | 2.6 | 0.00 | 0.00 | 0.00 | 50 | 1028.8 |
| 20260906121516 | 60 | 180 | 0.9 | 1.7 | 0.00 | 0.00 | 0.00 | 50 | 1028.9 |
| 20260906120516 | 60 | 158 | 0.9 | 1.7 | 0.00 | 0.00 | 0.00 | 50 | 1029.0 |
| 20260906115536 | 60 | 180 | 1.7 | 3.5 | 0.00 | 0.00 | 0.00 | 49 | 1029.1 |
| 20260906114516 | 60 | 180 | 2.6 | 2.6 | 0.00 | 0.00 | 0.00 | 49 | 1029.0 |
| 20260906113516 | 60 | 180 | 1.7 | 2.6 | 0.00 | 0.00 | 0.00 | 49 | 1030.3 |
| 20260906112515 | 60 | 0.0 | 0.9 | 0.00 | 0.00 | 0.00 | 49 | 1030.1 | |
| 20260906111516 | 60 | 135 | 0.9 | 1.7 | 0.00 | 0.00 | 0.00 | 49 | 1030.1 |
| 20260906110516 | 60 | 180 | 0.9 | 2.6 | 0.00 | 0.00 | 0.00 | 49 | 1029.5 |
| 20260906105516 | 60 | 158 | 0.9 | 1.7 | 0.00 | 0.00 | 0.00 | 49 | 1029.4 |
| 20260906104516 | 60 | 180 | 0.9 | 1.7 | 0.00 | 0.00 | 0.00 | 49 | 1029.0 |
| 20260906103515 | 60 | 180 | 1.7 | 1.7 | 0.00 | 0.00 | 0.00 | 49 | 1029.5 |
| 20260906102515 | 59 | 158 | 1.7 | 3.5 | 0.00 | 0.00 | 0.00 | 49 | 1029.6 |
| 20260906101516 | 60 | 180 | 2.6 | 3.5 | 0.00 | 0.00 | 0.00 | 49 | 1029.6 |
| 20260906100515 | 60 | 180 | 1.7 | 3.5 | 0.00 | 0.00 | 0.00 | 49 | 1030.2 |
| 20260906095515 | 60 | 180 | 1.7 | 2.6 | 0.00 | 0.00 | 0.00 | 48 | 1030.2 |
| 20260906094515 | 60 | 158 | 0.9 | 1.7 | 0.00 | 0.00 | 0.00 | 48 | 1030.1 |
| 20260906093516 | 60 | 158 | 2.6 | 3.5 | 0.00 | 0.00 | 0.00 | 49 | 1030.3 |
| 20260906092515 | 60 | 180 | 1.7 | 2.6 | 0.00 | 0.00 | 0.00 | 50 | 1030.3 |
| 20260906091535 | 59 | 180 | 1.7 | 2.6 | 0.00 | 0.00 | 0.00 | 50 | 1030.3 |
| 20260906090515 | 58 | 180 | 1.7 | 3.5 | 0.00 | 0.00 | 0.00 | 52 | 1029.1 |
| 20260906085516 | 59 | 180 | 0.9 | 2.6 | 0.00 | 0.00 | 0.00 | 52 | 1029.8 |
| 20260906084536 | 59 | 180 | 2.6 | 6.1 | 0.00 | 0.00 | 0.00 | 51 | 1029.7 |
| 20260906083515 | 59 | 203 | 1.7 | 3.5 | 0.00 | 0.00 | 0.00 | 53 | 1029.7 |
| 20260906082516 | 59 | 203 | 2.6 | 3.5 | 0.00 | 0.00 | 0.00 | 52 | 1029.7 |
| 20260906081517 | 59 | 180 | 2.6 | 3.5 | 0.00 | 0.00 | 0.00 | 53 | 1029.8 |
| 20260906080517 | 59 | 180 | 0.9 | 1.7 | 0.00 | 0.00 | 0.00 | 54 | 1030.5 |
| 20260906075517 | 58 | 225 | 0.9 | 2.6 | 0.00 | 0.00 | 0.00 | 55 | 1030.1 |
| 20260906074517 | 58 | 180 | 2.6 | 3.5 | 0.00 | 0.00 | 0.00 | 56 | 1030.1 |
| 20260906073517 | 57 | 180 | 2.6 | 5.2 | 0.00 | 0.00 | 0.00 | 58 | 1029.5 |
| 20260906072517 | 56 | 180 | 2.6 | 6.1 | 0.00 | 0.00 | 0.00 | 62 | 1029.6 |
| 20260906071517 | 55 | 180 | 2.6 | 4.3 | 0.00 | 0.00 | 0.00 | 65 | 1029.1 |
| 20260906070517 | 55 | 180 | 1.7 | 2.6 | 0.00 | 0.00 | 0.00 | 67 | 1029.1 |
| 20260906065557 | 55 | 180 | 1.7 | 3.5 | 0.00 | 0.00 | 0.00 | 68 | 1029.3 |
| 20260906064517 | 55 | 203 | 1.7 | 3.5 | 0.00 | 0.00 | 0.00 | 68 | 1029.3 |
| 20260906063537 | 56 | 180 | 0.9 | 2.6 | 0.00 | 0.00 | 0.00 | 65 | 1029.9 |
| 20260906062517 | 57 | 180 | 1.7 | 2.6 | 0.00 | 0.00 | 0.00 | 62 | 1029.9 |
| 20260906061537 | 57 | 180 | 1.7 | 2.6 | 0.00 | 0.00 | 0.00 | 61 | 1030.0 |
| 20260906060517 | 57 | 180 | 1.7 | 2.6 | 0.00 | 0.00 | 0.00 | 61 | 1030.1 |
| 20260906055515 | 57 | 203 | 0.9 | 2.6 | 0.00 | 0.00 | 0.00 | 61 | 1030.2 |
| 20260906054515 | 58 | 203 | 1.7 | 2.6 | 0.00 | 0.00 | 0.00 | 60 | 1030.2 |
| 20260906053535 | 58 | 203 | 1.7 | 2.6 | 0.00 | 0.00 | 0.00 | 59 | 1030.3 |
| 20260906052516 | 58 | 203 | 2.6 | 6.1 | 0.00 | 0.00 | 0.00 | 59 | 1030.5 |
| 20260906051515 | 58 | 180 | 2.6 | 5.2 | 0.00 | 0.00 | 0.00 | 59 | 1030.6 |
| 20260906050515 | 58 | 203 | 1.7 | 6.1 | 0.00 | 0.00 | 0.00 | 59 | 1029.9 |
| 20260906045615 | 58 | 180 | 2.6 | 6.1 | 0.00 | 0.00 | 0.00 | 60 | 1029.9 |
| 20260906044515 | 58 | 225 | 6.1 | 10.4 | 0.00 | 0.00 | 0.00 | 60 | 1030.1 |
| 20260906043515 | 58 | 225 | 7.0 | 12.2 | 0.00 | 0.00 | 0.00 | 60 | 1029.3 |
| 20260906042515 | 58 | 203 | 3.5 | 9.6 | 0.00 | 0.00 | 0.00 | 59 | 1029.2 |
| 20260906041515 | 58 | 203 | 3.5 | 7.8 | 0.00 | 0.00 | 0.00 | 58 | 1029.1 |
| 20260906040535 | 58 | 225 | 2.6 | 9.6 | 0.00 | 0.00 | 0.00 | 61 | 1028.6 |
| 20260906035515 | 57 | 225 | 5.2 | 9.6 | 0.00 | 0.00 | 0.00 | 63 | 1028.7 |
| 20260906034537 | 57 | 225 | 4.3 | 8.7 | 0.00 | 0.00 | 0.00 | 65 | 1028.2 |
| 20260906033537 | 57 | 225 | 2.6 | 7.0 | 0.00 | 0.00 | 0.00 | 62 | 1028.0 |
| 20260906032517 | 58 | 225 | 6.1 | 10.4 | 0.00 | 0.00 | 0.00 | 59 | 1028.5 |
| 20260906031517 | 59 | 203 | 4.3 | 7.8 | 0.00 | 0.00 | 0.00 | 54 | 1028.2 |
| 20260906030517 | 60 | 180 | 3.5 | 7.0 | 0.00 | 0.00 | 0.00 | 51 | 1027.5 |
| 20260906025517 | 59 | 180 | 0.9 | 1.7 | 0.00 | 0.00 | 0.00 | 53 | 1026.6 |
| 20260906024537 | 59 | 180 | 0.9 | 1.7 | 0.00 | 0.00 | 0.00 | 54 | 1026.5 |
| 20260906023517 | 59 | 23 | 0.9 | 1.7 | 0.00 | 0.00 | 0.00 | 50 | 1025.6 |
| 20260906022517 | 59 | 0 | 1.7 | 3.5 | 0.00 | 0.00 | 0.00 | 52 | 1025.5 |
| 20260906021517 | 59 | 23 | 1.7 | 3.5 | 0.00 | 0.00 | 0.00 | 52 | 1025.4 |
| 20260906020517 | 59 | 68 | 2.6 | 3.5 | 0.00 | 0.00 | 0.00 | 52 | 1025.4 |
| 20260906015517 | 60 | 45 | 1.7 | 4.3 | 0.00 | 0.00 | 0.00 | 52 | 1025.5 |
| 20260906014517 | 60 | 23 | 2.6 | 7.0 | 0.00 | 0.00 | 0.00 | 52 | 1025.6 |
| 20260906013517 | 61 | 23 | 2.6 | 6.1 | 0.00 | 0.00 | 0.00 | 53 | 1025.5 |
| 20260906012517 | 61 | 0 | 5.2 | 17.4 | 0.00 | 0.00 | 0.00 | 51 | 1025.5 |
| 20260906011517 | 62 | 293 | 6.1 | 14.8 | 0.00 | 0.00 | 0.00 | 48 | 1026.7 |
| 20260906010517 | 63 | 338 | 0.9 | 3.5 | 0.00 | 0.00 | 0.00 | 45 | 1026.4 |
| 20260906005516 | 64 | 0 | 2.6 | 7.0 | 0.00 | 0.00 | 0.00 | 48 | 1026.8 |
| 20260906004516 | 64 | 23 | 2.6 | 6.1 | 0.00 | 0.00 | 0.00 | 43 | 1026.7 |
| 20260906003517 | 65 | 0 | 3.5 | 8.7 | 0.00 | 0.00 | 0.00 | 43 | 1026.8 |
| 20260906002516 | 66 | 23 | 3.5 | 8.7 | 0.00 | 0.00 | 0.00 | 44 | 1027.4 |
| 20260906001517 | 67 | 23 | 2.6 | 6.1 | 0.00 | 0.00 | 0.00 | 42 | 1027.3 |
| 20260906000536 | 69 | 0 | 3.5 | 9.6 | 0.00 | 0.00 | 0.00 | 40 | 1028.3 |
| 20260905235516 | 68 | 293 | 5.2 | 10.4 | 0.00 | 0.00 | 0.00 | 39 | 1027.8 |
| 20260905234516 | 67 | 338 | 5.2 | 11.3 | 0.00 | 0.00 | 0.00 | 40 | 1027.3 |
| 20260905233516 | 70 | 0 | 2.6 | 7.0 | 0.00 | 0.00 | 0.00 | 36 | 1027.8 |
| 20260905232517 | 71 | 0 | 3.5 | 7.8 | 0.00 | 0.00 | 0.00 | 34 | 1028.2 |
| 20260905231516 | 73 | 0 | 0.9 | 6.1 | 0.00 | 0.00 | 0.00 | 32 | 1029.0 |
| 20260905230516 | 71 | 23 | 0.9 | 4.3 | 0.00 | 0.00 | 0.00 | 34 | 1028.3 |
| 20260905225517 | 70 | 68 | 0.9 | 2.6 | 0.00 | 0.00 | 0.00 | 35 | 1027.7 |
| 20260905224537 | 70 | 68 | 1.7 | 4.3 | 0.00 | 0.00 | 0.00 | 35 | 1027.6 |
| 20260905223516 | 70 | 23 | 1.7 | 5.2 | 0.00 | 0.00 | 0.00 | 35 | 1027.6 |
| 20260905222516 | 70 | 23 | 0.9 | 4.3 | 0.00 | 0.00 | 0.00 | 36 | 1027.7 |
| 20260905221516 | 71 | 45 | 3.5 | 7.0 | 0.00 | 0.00 | 0.00 | 34 | 1028.2 |
| 20260905220516 | 71 | 45 | 1.7 | 7.8 | 0.00 | 0.00 | 0.00 | 34 | 1028.3 |
| 20260905215516 | 72 | 23 | 2.6 | 8.7 | 0.00 | 0.00 | 0.00 | 33 | 1029.0 |
| 20260905214516 | 72 | 23 | 3.5 | 9.6 | 0.00 | 0.00 | 0.00 | 33 | 1028.4 |
| 20260905213516 | 72 | 0 | 0.9 | 5.2 | 0.00 | 0.00 | 0.00 | 34 | 1029.1 |
| 20260905212516 | 72 | 23 | 2.6 | 7.8 | 0.00 | 0.00 | 0.00 | 33 | 1029.1 |
| 20260905211516 | 73 | 23 | 2.6 | 10.4 | 0.00 | 0.00 | 0.00 | 32 | 1029.2 |
| 20260905210556 | 73 | 23 | 3.5 | 10.4 | 0.00 | 0.00 | 0.00 | 35 | 1028.9 |
| 20260905205516 | 71 | 0 | 2.6 | 8.7 | 0.00 | 0.00 | 0.00 | 35 | 1028.8 |
| 20260905204516 | 71 | 45 | 1.7 | 6.1 | 0.00 | 0.00 | 0.00 | 35 | 1029.0 |
| 20260905203516 | 71 | 68 | 2.6 | 6.1 | 0.00 | 0.00 | 0.00 | 35 | 1028.9 |
| 20260905202516 | 71 | 68 | 2.6 | 10.4 | 0.00 | 0.00 | 0.00 | 36 | 1029.0 |
| 20260905201516 | 71 | 23 | 1.7 | 4.3 | 0.00 | 0.00 | 0.00 | 35 | 1029.0 |
| 20260905200536 | 71 | 23 | 1.7 | 5.2 | 0.00 | 0.00 | 0.00 | 36 | 1029.1 |
| 20260905195516 | 71 | 68 | 2.6 | 7.0 | 0.00 | 0.00 | 0.00 | 35 | 1029.1 |
| 20260905194516 | 72 | 68 | 3.5 | 7.8 | 0.00 | 0.00 | 0.00 | 33 | 1029.9 |
| 20260905193516 | 73 | 23 | 1.7 | 5.2 | 0.00 | 0.00 | 0.00 | 33 | 1029.8 |
| 20260905192516 | 73 | 45 | 1.7 | 5.2 | 0.00 | 0.00 | 0.00 | 34 | 1029.8 |
| 20260905191516 | 72 | 23 | 4.3 | 9.6 | 0.00 | 0.00 | 0.00 | 35 | 1029.8 |
| 20260905190516 | 71 | 23 | 3.5 | 7.8 | 0.00 | 0.00 | 0.00 | 36 | 1029.3 |
| 20260905185536 | 71 | 23 | 1.7 | 5.2 | 0.00 | 0.00 | 0.00 | 36 | 1029.3 |
| 20260905184516 | 72 | 68 | 2.6 | 7.8 | 0.00 | 0.00 | 0.00 | 35 | 1029.2 |
| 20260905183515 | 72 | 23 | 2.6 | 7.0 | 0.00 | 0.00 | 0.00 | 35 | 1029.3 |
| 20260905182516 | 72 | 45 | 2.6 | 7.8 | 0.00 | 0.00 | 0.00 | 33 | 1029.3 |
| 20260905181516 | 72 | 113 | 1.7 | 6.1 | 0.00 | 0.00 | 0.00 | 32 | 1029.4 |
| 20260905180516 | 72 | 338 | 0.9 | 5.2 | 0.00 | 0.00 | 0.00 | 32 | 1029.9 |
| 20260905175515 | 71 | 0 | 2.6 | 7.0 | 0.00 | 0.00 | 0.00 | 32 | 1029.4 |
| 20260905174516 | 70 | 338 | 3.5 | 7.8 | 0.00 | 0.00 | 0.00 | 32 | 1029.4 |
| 20260905173516 | 72 | 0 | 1.7 | 4.3 | 0.00 | 0.00 | 0.00 | 32 | 1030.4 |
| 20260905172516 | 71 | 338 | 3.5 | 8.7 | 0.00 | 0.00 | 0.00 | 33 | 1029.7 |
| 20260905171516 | 71 | 338 | 3.5 | 8.7 | 0.00 | 0.00 | 0.00 | 33 | 1029.7 |
| 20260905170515 | 71 | 23 | 2.6 | 7.8 | 0.00 | 0.00 | 0.00 | 34 | 1029.6 |
| 20260905165515 | 69 | 68 | 1.7 | 4.3 | 0.00 | 0.00 | 0.00 | 32 | 1029.0 |
| 20260905164515 | 69 | 113 | 0.9 | 3.5 | 0.00 | 0.00 | 0.00 | 32 | 1028.9 |